Location: Bottenau
(48.5138°N, 8.0462°E)
Time: 19:45:37
(UTC+00:00)

Cosmos 405 Rocket - Pass Details

Date: 18 April 2021
Orbit: 488 x 553 km, 81.3° (Epoch: 17 May)

Event Time Altitude Azimuth Distance (km) Brightness Sun altitude
Rises 19:28:34 0° 353° (N) 2,737 7.0 -10.6°
Reaches altitude 10° 19:30:50 10° 360° (N) 1,832 5.9 -10.9°
Maximum altitude 19:34:43 46° 74° (ENE) 742 3.2 -11.5°
Enters shadow 19:37:35 16° 143° (SE) 1,429 4.4 -11.9°
